Location: Newark
(0.5300°S, 127.4800°E)
Time: 02:11:11
(UTC+00:00)

Vanguard 3 - Pass Details

Date: 25 September 2019
Orbit: 508 x 3262 km, 33.3° (Epoch: 18 October)

Event Time Altitude Azimuth Distance (km) Brightness Sun altitude
Rises 01:04:34 0° 316° (NW) 6,397 11.5 55.6°
Reaches altitude 10° 01:11:22 10° 334° (NNW) 5,802 11.5 57.3°
Maximum altitude 01:22:13 17° 10° (N) 5,526 11.7 60.1°
Drops below altitude 10° 01:33:34 10° 46° (NE) 6,113 12.0 62.9°
Sets 01:41:01 0° 64° (ENE) 6,869 12.2 64.8°
